x

8447387 - Borden Flats Light At Fall River, Ma (bltm3) Weather Station

8:18am - Tue 12th Dec 2017 All times are EST. -5 hours from GMT.

  • Wind
    6mph, 7mph gusts
  • Air Temp 41°f
  • Sea Pressure 1007.3mb
  • 8447387 - Borden Flats Light At Fall River, Ma
  • 8447387 - Borden Flats Light At Fall River, Ma

More Historic Weather Station data

Upgrade to MSW Pro to gain access to the past 30 days of data for over 8000 Wavebouys and Weather Stations around the globe.

Join

Comparision Forecast

View Surf forecast
   
Tue 12/12 8:18am 6 7 mph 1007.3mb 41f
8:12am 6 7 mph 1007.1mb 41f
8:06am 7 10 mph 1006.8mb 41f
8:00am 9 13 mph 1006.6mb 40f
7:54am 10 15 mph 1006.6mb 40f
7:48am 10 13 mph 1007mb 40f
7:42am 11 15 mph 1007.3mb 40f
7:36am 11 15 mph 1007.5mb 40f
7:30am 9 13 mph 1007.7mb 40f
7:24am 9 11 mph 1007.9mb 39f
7:18am 10 13 mph 1008mb 39f
7:12am 10 14 mph 1008.1mb 39f
7:06am 10 13 mph 1008.3mb 39f
7:00am 11 14 mph 1008.4mb 39f
6:54am 11 14 mph 1008.6mb 39f
6:48am 11 14 mph 1008.8mb 39f
6:42am 11 15 mph 1009mb 39f
6:36am 11 14 mph 1009.2mb 38f
6:30am 11 14 mph 1009.3mb 39f
6:24am 11 14 mph 1009.4mb 38f
6:18am 11 16 mph 1009.4mb 38f
6:12am 10 14 mph 1009.6mb 38f
6:06am 11 14 mph 1009.6mb 38f
6:00am 11 15 mph 1009.7mb 38f
5:54am 10 14 mph 1009.8mb 38f
5:48am 9 11 mph 1010mb 38f
5:42am 11 14 mph 1010mb 38f
5:36am 11 14 mph 1010.2mb 38f
5:30am 10 14 mph 1010.2mb 38f
5:24am 9 14 mph 1010.2mb 38f
5:18am 9 10 mph 1010.3mb 38f
5:12am 9 11 mph 1010.5mb 38f
5:06am 8 10 mph 1010.6mb 38f
5:00am 7 9 mph 1010.6mb 38f
4:54am 8 11 mph 1010.7mb 38f
4:48am 8 11 mph 1010.7mb 38f
4:42am 8 9 mph 1010.7mb 38f
4:36am 8 11 mph 1010.8mb 38f
4:30am 8 10 mph 1010.9mb 38f
4:24am 8 10 mph 1010.9mb 38f
4:18am 8 13 mph 1011.1mb 38f
4:12am 9 10 mph 1011.2mb 38f
4:06am 9 13 mph 1011.4mb 38f
4:00am 8 11 mph 1011.4mb 38f
3:54am 10 13 mph 1011.5mb 38f
3:48am 9 13 mph 1011.7mb 38f
3:42am 10 14 mph 1012mb 38f
3:36am 10 13 mph 1012.1mb 38f
3:30am 10 14 mph 1012.2mb 38f
3:24am 10 13 mph 1012.4mb 37f
3:18am 9 11 mph 1012.5mb 38f
3:12am 9 11 mph 1012.5mb 38f
3:06am 9 11 mph 1012.7mb 38f
3:00am 8 10 mph 1012.8mb 38f
2:54am 8 10 mph 1012.9mb 37f
2:48am 9 11 mph 1012.9mb 37f
2:42am 11 14 mph 1013mb 37f
2:36am 9 10 mph 1013.1mb 37f
2:30am 9 13 mph 1013.3mb 37f
2:24am 8 10 mph 1013.3mb 37f
2:18am 9 13 mph 1013.3mb 37f
2:12am 9 11 mph 1013.4mb 37f
2:06am 7 9 mph 1013.5mb 37f
2:00am 8 9 mph 1013.6mb 37f
1:48am 7 9 mph 1013.6mb -
1:42am 7 8 mph 1013.6mb -
1:36am 7 8 mph 1013.7mb -
1:30am 8 9 mph 1013.7mb 37f
1:24am 7 9 mph 1013.8mb 37f
1:18am 7 9 mph 1014mb 37f
1:12am 6 8 mph 1013.9mb 37f
1:06am 7 9 mph 1014.1mb 37f
1:00am 7 9 mph 1014.2mb 37f
12:54am 7 11 mph 1014.2mb 37f
12:48am 8 9 mph 1014.2mb 37f
12:42am 7 8 mph 1014.3mb 36f
12:36am 7 8 mph 1014.4mb 36f
12:30am 6 8 mph 1014.6mb 36f
12:24am 6 7 mph 1014.7mb 36f
12:18am 6 8 mph 1014.7mb 36f
12:12am 6 8 mph 1014.8mb 36f
12:06am 7 8 mph 1014.7mb 36f
12:00am 6 7 mph 1014.9mb 36f
Mon 12/11 11:54pm 8 9 mph 1014.8mb 36f
11:48pm 6 8 mph 1014.8mb 36f
11:42pm 7 10 mph 1014.8mb 36f
11:36pm 6 7 mph 1014.8mb 36f
11:30pm 7 9 mph 1014.7mb 36f
11:24pm 6 7 mph 1014.9mb 36f
11:18pm 5 7 mph 1014.9mb 36f
11:12pm 6 7 mph 1015mb 36f
11:06pm 5 6 mph 1015.2mb 36f
11:00pm 5 7 mph 1015.2mb 36f
10:54pm 5 6 mph 1015.2mb 36f
10:48pm 5 6 mph 1015.1mb 36f
10:42pm 3 6 mph 1015.1mb 35f
10:36pm 5 6 mph 1015.1mb 35f
10:30pm 6 7 mph 1015.1mb 36f
10:24pm 5 6 mph 1015.3mb 35f
10:18pm 6 7 mph 1015.4mb 35f
10:12pm 6 7 mph 1015.3mb 35f
10:06pm 5 6 mph 1015.5mb 35f
10:00pm 6 7 mph 1015.4mb 36f
9:48pm 3 5 mph 1015.6mb 36f
9:42pm 3 5 mph 1015.7mb 36f
9:36pm 3 3 mph 1015.8mb 36f
9:30pm 3 5 mph 1015.7mb 36f
9:24pm 5 6 mph 1015.6mb 36f
9:18pm 6 7 mph 1015.7mb 36f
9:12pm 6 7 mph 1015.7mb 36f
9:06pm 3 5 mph 1015.8mb 36f
9:00pm 5 6 mph 1015.8mb 36f
8:54pm 3 5 mph 1016mb 36f
8:48pm 2 3 mph 1016mb 36f
8:42pm 2 3 mph 1016.1mb 36f
8:36pm 2 3 mph 1016mb 36f
8:30pm 2 3 mph 1015.9mb 36f
8:24pm 3 5 mph 1015.9mb 36f
8:18pm 2 5 mph 1015.9mb 36f
8:12pm 3 3 mph 1015.8mb 36f
8:06pm 2 3 mph 1015.9mb 36f
8:00pm 2 3 mph 1015.9mb 36f
7:54pm 2 3 mph 1015.9mb 36f
7:48pm 3 3 mph 1015.9mb 36f
7:42pm 3 5 mph 1015.8mb 36f
7:36pm 2 3 mph 1016mb 37f
7:30pm 2 2 mph 1015.9mb 37f
7:24pm 3 5 mph 1015.8mb 37f
7:18pm 3 5 mph 1015.7mb -
7:12pm 2 5 mph 1015.9mb -
7:06pm 5 6 mph 1015.9mb -
7:00pm 2 5 mph 1016mb 37f
6:54pm 5 6 mph 1015.9mb 37f
6:48pm 5 5 mph 1015.9mb 37f
6:42pm 3 6 mph 1016.1mb 37f
6:36pm 5 6 mph 1015.9mb 37f
6:30pm 3 5 mph 1015.9mb 37f
6:24pm 5 6 mph 1015.8mb 37f
6:18pm 6 7 mph 1015.6mb 37f
6:12pm 6 8 mph 1015.8mb 37f
6:06pm 6 9 mph 1015.8mb 38f
6:00pm 7 9 mph 1015.8mb 38f
5:54pm 6 8 mph 1015.9mb 38f
5:48pm 7 8 mph 1015.7mb 38f
5:42pm 7 8 mph 1015.6mb 38f
5:36pm 6 8 mph 1015.6mb 38f
5:30pm 7 8 mph 1015.5mb 39f
5:24pm 7 9 mph 1015.4mb 39f
5:18pm 6 8 mph 1015.3mb 39f
5:12pm 6 6 mph 1015.4mb 39f
5:06pm 6 6 mph 1015.4mb 40f
5:00pm 5 5 mph 1015.4mb 40f
4:54pm 5 5 mph 1015.4mb 40f
4:48pm 5 6 mph 1015.3mb 40f
4:42pm 5 6 mph 1015.2mb 40f
4:36pm 6 7 mph 1015.1mb 40f
4:30pm 3 5 mph 1015.1mb 40f
4:24pm 5 6 mph 1015mb 40f
4:18pm 7 8 mph 1014.9mb 40f
4:12pm 7 8 mph 1014.9mb 40f
4:06pm 7 8 mph 1014.8mb 40f
4:00pm 7 8 mph 1014.7mb 41f
3:54pm 6 7 mph 1014.5mb 40f
3:48pm 7 8 mph 1014.6mb 40f
3:42pm 6 7 mph 1014.5mb 40f
3:36pm 7 8 mph 1014.4mb 41f
3:30pm 7 9 mph 1014.4mb 42f
3:24pm 7 8 mph 1014.2mb 42f
3:18pm 5 8 mph 1014mb 42f
3:12pm 6 8 mph 1014mb 42f
3:06pm 7 8 mph 1014mb 43f
3:00pm 6 8 mph 1014.1mb 41f
2:54pm 6 7 mph 1014.1mb 40f
2:48pm 6 8 mph 1014.1mb 41f
2:42pm 3 6 mph 1014mb 40f
2:36pm 3 6 mph 1013.9mb 40f
2:30pm 6 8 mph 1013.8mb 40f
2:24pm 5 7 mph 1013.8mb 39f
2:18pm 7 9 mph 1013.8mb 39f
2:12pm 8 11 mph 1013.7mb 40f
2:06pm 9 11 mph 1013.8mb 41f
2:00pm 8 10 mph 1013.6mb 43f
1:54pm 6 9 mph 1013.6mb 40f
1:48pm 8 9 mph 1013.5mb 40f
1:42pm 6 9 mph 1013.6mb 40f
1:36pm 6 8 mph 1013.6mb 40f
1:30pm 8 14 mph 1013.6mb 39f
1:24pm 9 11 mph 1013.5mb 40f
1:18pm 8 9 mph 1013.6mb 40f
1:12pm 7 9 mph 1013.5mb 40f
1:06pm 9 11 mph 1013.7mb 39f
1:00pm 8 9 mph 1013.8mb 38f
12:54pm 8 10 mph 1013.8mb 38f
12:48pm 8 10 mph 1013.9mb 38f
12:42pm 9 13 mph 1013.9mb 38f
12:36pm 11 14 mph 1014mb 38f
12:30pm 9 13 mph 1013.9mb 38f
12:24pm 11 14 mph 1013.7mb 38f
12:18pm 10 13 mph 1014mb 38f
12:12pm 11 14 mph 1014mb 37f
12:06pm 13 15 mph 1014.1mb 38f
12:00pm 14 16 mph 1014.2mb 38f
11:54am 13 16 mph 1014.4mb 37f
11:48am 13 16 mph 1014.4mb 37f
11:42am 11 14 mph 1014.5mb 37f
11:36am 10 13 mph 1014.5mb 37f
11:30am 11 15 mph 1014.5mb 37f
11:24am 11 14 mph 1014.4mb 37f
11:18am 11 15 mph 1014.5mb 37f
11:12am 13 15 mph 1014.4mb 36f
11:06am 11 14 mph 1014.3mb 37f
11:00am 14 17 mph 1014.3mb 37f
10:54am 14 18 mph 1014.4mb 36f
10:48am 11 15 mph 1014.5mb 36f
10:42am 10 13 mph 1014.5mb 36f
10:36am 11 15 mph 1014.7mb 36f
10:30am 14 16 mph 1014.9mb 36f
10:24am 13 18 mph 1015mb 36f
10:18am 13 15 mph 1015.2mb 35f
10:12am 14 15 mph 1015.3mb 36f
10:06am 13 15 mph 1015.2mb 35f
10:00am 11 15 mph 1015.1mb 35f
9:54am 14 17 mph 1015.2mb 35f
9:48am 13 17 mph 1015.1mb 35f
9:42am 14 15 mph 1015.1mb 35f
9:36am 13 16 mph 1015mb 35f
9:30am 15 17 mph 1015mb 35f
9:24am 14 16 mph 1015mb 35f
9:18am 10 11 mph 1015mb 35f
9:12am 10 11 mph 1014.9mb 35f
9:06am 10 14 mph 1014.8mb 35f
9:00am 11 14 mph 1014.9mb 35f
8:54am 15 21 mph 1015mb 35f
8:48am 16 20 mph 1015.1mb 35f
8:42am 17 20 mph 1015.1mb 35f
8:36am 15 18 mph 1015mb 35f
8:30am 15 18 mph 1015mb 35f
8:24am 16 21 mph 1014.9mb 36f
8:18am 16 20 mph 1014.8mb 35f
8:12am 20 23 mph 1014.7mb 35f
8:06am 18 23 mph 1014.7mb 36f
7:54am 20 24 mph 1014.7mb 36f
7:48am 21 25 mph 1014.7mb 36f
7:42am 18 24 mph 1014.6mb 36f
7:36am 20 24 mph 1014.6mb 36f
7:30am 18 23 mph 1014.5mb 36f
7:24am 14 17 mph 1014.5mb 36f
7:18am 14 16 mph 1014.5mb 36f
7:12am 15 17 mph 1014.5mb 36f
7:06am 16 20 mph 1014.5mb 36f
7:00am 17 20 mph 1014.5mb 36f
6:54am 17 21 mph 1014.3mb 36f
6:48am 16 18 mph 1014.4mb 36f
6:42am 15 18 mph 1014.4mb 36f
6:36am 15 17 mph 1014.4mb 36f
6:30am 15 18 mph 1014.3mb 36f
6:24am 13 16 mph 1014.3mb 36f
6:18am 14 17 mph 1014.2mb 36f
6:12am 17 21 mph 1014.1mb 36f
6:06am 17 20 mph 1014mb 36f
6:00am 16 18 mph 1013.9mb 36f
5:54am 15 17 mph 1013.9mb 36f
5:48am 15 17 mph 1013.8mb 37f
5:42am 15 17 mph 1013.7mb 36f
5:36am 16 20 mph 1013.7mb 36f
5:30am 16 21 mph 1013.8mb 37f
5:24am 18 22 mph 1013.7mb 37f
5:18am 16 20 mph 1013.7mb 37f
5:12am 14 18 mph 1013.7mb 37f
5:06am 14 16 mph 1013.7mb 37f
5:00am 14 17 mph 1013.6mb 37f
4:54am 16 18 mph 1013.5mb 36f
4:48am 13 15 mph 1013.5mb 37f
4:42am 15 20 mph 1013.5mb 37f
4:36am 16 20 mph 1013.4mb 37f
4:30am 14 17 mph 1013.4mb 37f
4:24am 16 20 mph 1013.4mb 37f
4:18am 16 21 mph 1013.4mb 37f
4:12am 16 21 mph 1013.4mb 37f
4:06am 15 18 mph 1013.4mb 37f
4:00am 16 21 mph 1013.4mb 37f
3:54am 15 20 mph 1013.4mb 37f
3:48am 16 20 mph 1013.5mb 37f
3:42am 17 20 mph 1013.4mb 37f
3:36am 16 18 mph 1013.4mb 37f
3:30am 15 17 mph 1013.4mb 37f
3:24am 16 18 mph 1013.4mb 37f
3:18am 15 20 mph 1013.5mb 37f
3:12am 16 18 mph 1013.4mb 37f
3:06am 15 20 mph 1013.4mb 37f
3:00am 16 20 mph 1013.5mb 37f
2:54am 15 18 mph 1013.5mb 37f
2:48am 20 23 mph 1013.6mb 37f
2:42am 16 21 mph 1013.5mb 37f
2:36am 16 20 mph 1013.6mb 37f
2:30am 18 25 mph 1013.7mb 37f
2:24am 17 21 mph 1013.7mb 37f
2:18am 18 22 mph 1013.7mb 38f
2:12am 20 22 mph 1013.8mb 38f
2:06am 16 21 mph 1013.8mb 38f
2:00am 18 22 mph 1013.7mb 38f
1:54am 20 23 mph 1013.8mb 38f
1:48am 20 23 mph 1013.8mb -
1:42am 20 22 mph 1013.9mb -
1:36am 21 25 mph 1013.8mb -
1:30am 21 26 mph 1013.8mb 37f
1:24am 20 24 mph 1014mb 38f
1:18am 21 25 mph 1013.9mb 38f
1:12am 22 26 mph 1013.9mb 38f
1:06am 17 21 mph 1014mb 38f
1:00am 20 22 mph 1014mb 38f
12:54am 20 23 mph 1014mb 38f
12:48am 22 26 mph 1014mb 38f
12:42am 22 25 mph 1014mb 38f
12:36am 20 22 mph 1014.1mb 38f
12:30am 20 23 mph 1014mb 38f
12:24am 20 25 mph 1014mb 38f
12:18am 20 24 mph 1014mb 38f
12:12am 20 23 mph 1014mb 38f
12:06am 20 24 mph 1014mb 38f
12:00am 18 22 mph 1014mb 38f
Sun 12/10 11:54pm 17 22 mph 1014.1mb 38f
11:48pm 20 24 mph 1014mb 38f
11:42pm 20 24 mph 1014.1mb 38f
11:36pm 21 24 mph 1014.1mb 38f
11:30pm 18 23 mph 1014.1mb 38f
11:24pm 18 21 mph 1014.1mb 38f
11:18pm 18 23 mph 1014.1mb 38f
11:12pm 17 21 mph 1014.1mb 38f
11:06pm 20 23 mph 1014.1mb 38f
11:00pm 18 21 mph 1014.2mb 38f
10:54pm 18 22 mph 1014.2mb 38f
10:48pm 20 23 mph 1014.1mb 38f
10:42pm 20 22 mph 1014.2mb 38f
10:36pm 21 24 mph 1014.2mb 38f
10:30pm 17 21 mph 1014.2mb 38f
10:24pm 17 21 mph 1014.2mb 39f
10:18pm 17 22 mph 1014.2mb 38f
10:12pm 16 20 mph 1014.1mb 38f
10:06pm 18 22 mph 1014mb 38f
10:00pm 20 22 mph 1014mb 38f
9:54pm 16 21 mph 1014.1mb 39f
9:48pm 16 20 mph 1014mb 39f
9:42pm 17 21 mph 1014mb 39f
9:36pm 14 21 mph 1014mb 39f
9:30pm 14 17 mph 1014mb 39f
9:24pm 15 17 mph 1014mb 39f
9:18pm 14 15 mph 1014mb 39f
9:06pm 13 15 mph 1014.1mb 39f
9:00pm 13 15 mph 1014mb 39f
8:54pm 14 17 mph 1013.9mb 39f
8:48pm 13 15 mph 1013.9mb 38f
8:42pm 14 16 mph 1013.9mb 38f
8:36pm 14 18 mph 1014mb 38f
8:30pm 17 21 mph 1013.9mb 38f
8:24pm 18 21 mph 1013.9mb 38f
8:18pm 18 22 mph 1013.9mb 38f
8:12pm 18 22 mph 1014mb 38f
8:06pm 18 22 mph 1013.9mb 38f
8:00pm 18 22 mph 1013.9mb 38f
7:54pm 16 21 mph 1013.9mb 38f
7:48pm 20 23 mph 1013.8mb 38f
7:42pm 18 21 mph 1013.8mb 39f
7:36pm 18 22 mph 1013.7mb 38f
7:30pm 17 21 mph 1013.6mb 39f
7:24pm 18 21 mph 1013.5mb 39f
7:18pm 16 18 mph 1013.5mb 39f
7:12pm 16 18 mph 1013.4mb 38f
7:06pm 16 18 mph 1013.4mb 38f
7:00pm 16 18 mph 1013.3mb 38f
6:54pm 16 18 mph 1013.2mb 38f
6:48pm 18 21 mph 1013.2mb 39f
6:42pm 16 20 mph 1013.1mb 38f
6:36pm 17 22 mph 1013.1mb 39f
6:30pm 17 21 mph 1013.1mb 39f
6:24pm 17 20 mph 1013.1mb 39f
6:18pm 15 16 mph 1013.1mb 39f
6:12pm 16 18 mph 1013mb 39f
6:06pm 14 17 mph 1012.9mb 39f
6:00pm 15 17 mph 1012.8mb 39f
5:54pm 16 20 mph 1012.8mb 39f
5:48pm 15 18 mph 1012.6mb 39f
5:42pm 14 15 mph 1012.5mb 39f
5:36pm 14 17 mph 1012.5mb 39f
5:30pm 15 17 mph 1012.5mb 39f
5:24pm 15 18 mph 1012.5mb 39f
5:18pm 15 17 mph 1012.3mb 39f
5:12pm 15 18 mph 1012.2mb 39f
5:06pm 14 16 mph 1012.2mb 39f
5:00pm 15 17 mph 1012.1mb 39f
4:54pm 13 14 mph 1012.1mb 39f
4:48pm 14 16 mph 1012mb 39f
4:42pm 14 17 mph 1012mb 39f
4:30pm 11 14 mph 1011.9mb 39f
4:24pm 15 17 mph 1011.7mb 38f
4:18pm 14 17 mph 1011.6mb 38f
4:12pm 13 15 mph 1011.4mb 39f
4:06pm 14 16 mph 1011.2mb 39f
4:00pm 14 16 mph 1011.1mb 39f
3:54pm 14 17 mph 1011.1mb 39f
3:48pm 16 20 mph 1011mb 39f
3:42pm 17 20 mph 1010.9mb 39f
3:36pm 17 21 mph 1010.8mb 39f
3:30pm 17 22 mph 1010.7mb 39f
3:24pm 15 18 mph 1010.8mb 39f
3:18pm 13 15 mph 1010.7mb 39f
3:12pm 13 15 mph 1010.6mb 39f
3:06pm 15 20 mph 1010.4mb 39f
3:00pm 18 22 mph 1010.3mb 39f
2:54pm 18 21 mph 1010.1mb 39f
2:48pm 16 18 mph 1010mb 39f
2:42pm 15 18 mph 1009.9mb 40f
2:36pm 15 18 mph 1009.9mb 40f
2:30pm 15 18 mph 1009.8mb 40f
2:24pm 17 20 mph 1009.7mb 39f
2:18pm 17 20 mph 1009.6mb 39f
2:12pm 14 17 mph 1009.4mb 40f
2:06pm 14 18 mph 1009.3mb 40f
2:00pm 16 21 mph 1009.2mb 40f
1:54pm 16 20 mph 1009.2mb 38f
1:48pm 16 20 mph 1009.2mb 38f
1:42pm 16 21 mph 1009.2mb 39f
1:36pm 14 17 mph 1009.1mb 38f
1:30pm 16 18 mph 1009mb 38f
1:24pm 17 21 mph 1008.9mb 38f
1:18pm 15 20 mph 1008.9mb 38f
1:12pm 16 21 mph 1008.9mb 38f
1:06pm 15 18 mph 1008.9mb 38f
1:00pm 15 18 mph 1008.8mb 38f
12:54pm 20 23 mph 1008.8mb 38f
12:48pm 16 20 mph 1008.8mb 38f
12:42pm 17 21 mph 1008.8mb 37f
12:36pm 17 21 mph 1008.8mb 38f
12:30pm 15 18 mph 1008.7mb 38f
12:24pm 17 21 mph 1008.8mb 37f
12:18pm 16 21 mph 1008.9mb 37f
12:12pm 15 21 mph 1008.9mb 37f
12:06pm 16 18 mph 1008.9mb 37f
12:00pm 17 22 mph 1009mb 37f
11:54am 17 20 mph 1009mb 37f
11:48am 17 21 mph 1009mb 36f
11:42am 17 22 mph 1009mb 36f
11:36am 18 22 mph 1009mb 37f
11:30am 17 22 mph 1009mb 37f
11:24am 17 21 mph 1008.9mb 36f
11:18am 18 22 mph 1008.8mb 36f
11:12am 16 21 mph 1008.9mb 36f
11:06am 17 21 mph 1009mb 36f
11:00am 17 22 mph 1009mb 36f
10:54am 17 20 mph 1009mb 36f
10:48am 14 17 mph 1009mb 36f
10:42am 16 21 mph 1008.9mb 36f
10:36am 16 20 mph 1008.9mb 36f
10:30am 17 22 mph 1008.9mb 36f
10:24am 18 22 mph 1008.8mb 36f
10:18am 15 18 mph 1008.7mb 36f
10:12am 15 20 mph 1008.6mb 35f
10:06am 15 18 mph 1008.6mb 35f
10:00am 17 22 mph 1008.6mb 35f
9:54am 15 17 mph 1008.6mb 35f
9:48am 14 17 mph 1008.6mb 35f
9:42am 15 18 mph 1008.5mb 35f
9:36am 13 18 mph 1008.5mb 35f
9:30am 13 21 mph 1008.4mb 34f
9:24am 14 16 mph 1008.4mb 34f
9:18am 11 17 mph 1008.3mb 34f
9:12am 14 16 mph 1008.1mb 34f
9:06am 14 17 mph 1008mb 34f
9:00am 14 17 mph 1007.9mb 34f
8:54am 13 20 mph 1007.8mb 35f
8:30am 11 15 mph 1007.5mb 34f
8:24am 11 14 mph 1007.3mb 34f
8:18am 11 14 mph 1007.2mb 33f
8:12am 11 14 mph 1007.1mb 33f
8:06am 10 14 mph 1007mb 33f
8:00am 13 16 mph 1006.9mb 34f
7:54am 11 15 mph 1006.8mb 33f
7:48am 13 16 mph 1006.8mb 34f
7:42am 14 20 mph 1006.7mb 34f
7:36am 14 17 mph 1006.5mb 34f
7:30am 13 17 mph 1006.4mb 34f
7:24am 13 15 mph 1006.3mb 34f
7:18am 13 16 mph 1006.2mb 34f
7:12am 13 14 mph 1006.1mb 34f
7:06am 11 15 mph 1005.9mb 34f
7:00am 11 14 mph 1005.8mb 34f
6:54am 13 15 mph 1005.7mb 34f
6:48am 11 15 mph 1005.8mb 34f
6:42am 10 13 mph 1005.7mb 33f
6:36am 8 10 mph 1005.6mb 34f
6:30am 10 13 mph 1005.5mb 33f
6:24am 11 15 mph 1005.5mb 34f
6:18am 11 14 mph 1005.4mb 34f
6:12am 11 13 mph 1005.2mb 34f
6:06am 9 13 mph 1005.1mb 34f
6:00am 9 11 mph 1005.1mb 33f
5:48am 8 11 mph 1004.5mb 34f
5:42am 8 11 mph 1004.4mb 34f
5:36am 9 11 mph 1004.2mb 34f
5:30am 9 11 mph 1004.1mb 34f
5:24am 9 11 mph 1004.2mb 34f
5:18am 9 10 mph 1004.1mb 33f
5:12am 8 11 mph 1004mb 34f
5:06am 7 9 mph 1003.9mb 34f
5:00am 9 13 mph 1003.8mb 34f
4:54am 9 13 mph 1003.8mb 34f
4:48am 9 11 mph 1003.9mb 34f
4:42am 9 11 mph 1003.8mb 34f
4:36am 8 11 mph 1003.7mb 33f
4:30am 8 9 mph 1003.6mb 33f
4:24am 8 9 mph 1003.5mb 33f
4:18am 6 8 mph 1003.4mb 33f
4:12am 6 7 mph 1003.3mb 33f
4:06am 6 9 mph 1003.3mb 33f
4:00am 7 9 mph 1003.3mb 33f
3:54am 7 10 mph 1003.3mb 33f
3:48am 7 10 mph 1003.2mb 33f
3:42am 7 10 mph 1003.3mb 33f
3:36am 6 7 mph 1003.2mb 33f
3:30am 7 8 mph 1003.1mb 33f
3:24am 7 9 mph 1003.3mb 33f
3:18am 8 10 mph 1003.3mb 33f
3:12am 7 8 mph 1003.4mb 33f
3:06am 7 9 mph 1003.4mb 33f
3:00am 5 8 mph 1003.3mb 33f
2:54am 8 10 mph 1003.3mb 33f
2:48am 7 11 mph 1003.2mb 33f
2:42am 6 8 mph 1003.2mb 33f
2:36am 5 6 mph 1002.9mb 33f
2:30am 7 9 mph 1002.8mb 33f
2:24am 6 8 mph 1002.8mb 33f
2:18am 8 10 mph 1002.7mb 33f
2:12am 7 10 mph 1002.6mb 33f
2:06am 7 8 mph 1002.7mb 33f
2:00am 7 10 mph 1002.8mb 33f
1:54am 9 13 mph 1002.8mb 33f
1:48am 7 10 mph 1002.7mb 33f
1:42am 8 11 mph 1002.8mb 33f
1:36am 9 13 mph 1002.8mb 33f
1:30am 7 10 mph 1002.6mb 33f
1:24am 10 16 mph 1002.6mb 33f
1:18am 10 14 mph 1002.7mb 33f
1:12am 11 16 mph 1002.7mb 33f
1:06am 11 16 mph 1002.5mb 33f
1:00am 9 14 mph 1002.3mb 33f
12:54am 13 16 mph 1002.1mb 33f
12:48am 10 15 mph 1001.9mb -
12:42am 10 13 mph 1002mb -
12:36am 8 13 mph 1001.9mb -
12:30am 9 14 mph 1001.8mb 33f
12:24am 8 11 mph 1001.8mb 33f
12:18am 9 13 mph 1001.7mb 33f
12:12am 7 10 mph 1001.9mb 33f
12:06am 7 9 mph 1001.5mb 33f
12:00am 5 8 mph 1001.8mb 33f
Sat 12/09 11:54pm 6 7 mph 1002mb 33f
11:48pm 7 9 mph 1001.9mb 33f
11:42pm 7 10 mph 1002.4mb 33f
11:36pm 8 11 mph 1002.3mb 33f
11:30pm 7 10 mph 1002.1mb 33f
11:24pm 8 10 mph 1002.1mb 33f
11:18pm 8 11 mph 1001.6mb 33f
11:12pm 9 14 mph 1002mb 33f
11:06pm 8 11 mph 1002.1mb 33f
11:00pm 8 10 mph 1002.3mb 33f
10:54pm 7 10 mph 1002.3mb 33f
10:48pm 8 13 mph 1002.3mb 33f
10:42pm 8 13 mph 1002.1mb 33f
10:36pm 7 9 mph 1002.4mb 33f
10:30pm 8 10 mph 1002.3mb 33f
10:24pm 10 14 mph 1001.8mb 33f
10:18pm 10 14 mph 1001.6mb 33f
10:12pm 8 11 mph 1001.7mb 33f
10:06pm 9 11 mph 1001.6mb 33f
10:00pm 11 15 mph 1001.9mb 33f
9:54pm 9 13 mph 1002.1mb 33f
9:48pm 8 13 mph 1002.1mb 33f
9:42pm 8 11 mph 1002mb 33f
9:36pm 10 14 mph 1001.8mb 33f
9:30pm 10 14 mph 1002mb 33f
9:24pm 9 14 mph 1002.3mb 33f
9:18pm 9 15 mph 1002.4mb 33f
9:12pm 10 14 mph 1002.2mb 33f
9:06pm 11 17 mph 1002.1mb 33f
9:00pm 11 20 mph 1002.3mb 33f
8:54pm 8 11 mph 1002.4mb 34f
8:48pm 9 14 mph 1002.5mb 34f
8:42pm 10 13 mph 1002.7mb 34f
8:36pm 10 14 mph 1002.1mb 33f
8:30pm 10 15 mph 1002.1mb 33f
8:24pm 10 14 mph 1002.6mb 34f
8:18pm 10 14 mph 1002.4mb 34f
8:12pm 9 13 mph 1002.6mb 34f
8:06pm 8 13 mph 1002.5mb 34f
8:00pm 10 14 mph 1002.5mb 34f
7:54pm 10 17 mph 1002.7mb 34f
7:48pm 11 15 mph 1002.9mb 34f
7:42pm 11 17 mph 1002.9mb 34f
7:36pm 13 18 mph 1002.9mb 34f
7:30pm 11 15 mph 1003.1mb 34f
7:24pm 13 17 mph 1003.1mb 34f
7:18pm 11 15 mph 1003.3mb 34f
7:12pm 10 14 mph 1003.4mb 34f
7:06pm 13 17 mph 1003.4mb 34f
7:00pm 14 17 mph 1003.4mb 34f
6:54pm 13 16 mph 1003.6mb 34f
6:48pm 11 15 mph 1004.1mb 34f
6:42pm 11 15 mph 1003.6mb 34f
6:36pm 13 17 mph 1003.6mb 34f
6:30pm 14 17 mph 1004mb 34f
6:24pm 13 16 mph 1004.4mb 34f
6:18pm 13 16 mph 1004.6mb 34f
6:12pm 11 17 mph 1004.4mb 34f
6:06pm 11 16 mph 1004.3mb 34f
6:00pm 13 17 mph 1004.3mb 34f
5:54pm 13 18 mph 1004.4mb 34f
5:48pm 13 18 mph 1004.1mb 34f
5:42pm 13 18 mph 1004.4mb 34f
5:36pm 13 16 mph 1004.6mb 34f
5:30pm 13 17 mph 1004.6mb 34f
5:24pm 14 18 mph 1004.7mb 34f
5:18pm 14 20 mph 1004.8mb 34f
5:12pm 11 14 mph 1005.2mb 34f
5:06pm 10 15 mph 1005.4mb 34f
5:00pm 11 15 mph 1005.5mb 34f
4:54pm 11 18 mph 1005.4mb 34f
4:48pm 14 20 mph 1005.2mb 34f
4:42pm 14 21 mph 1005.4mb 34f
4:36pm 13 18 mph 1005.5mb 34f
4:30pm 14 20 mph 1005.1mb 34f
4:24pm 14 20 mph 1005mb 34f
4:18pm 13 18 mph 1005.6mb 34f
4:12pm 11 17 mph 1006mb 33f
4:06pm 13 18 mph 1005.9mb 34f
4:00pm 11 17 mph 1006.2mb 34f
3:54pm 14 18 mph 1006mb 34f
3:48pm 10 15 mph 1006.5mb 34f
3:42pm 13 18 mph 1006.4mb 34f
3:36pm 13 16 mph 1006.8mb 34f
3:30pm 9 13 mph 1007.5mb 34f
3:24pm 13 16 mph 1006.6mb 33f
3:18pm 14 20 mph 1006.6mb 33f
3:12pm 10 17 mph 1007.1mb 34f
3:06pm 13 17 mph 1007.2mb 33f
3:00pm 14 18 mph 1007.1mb 33f
2:54pm 13 16 mph 1007mb 34f
2:48pm 13 15 mph 1007.4mb 34f
2:42pm 11 15 mph 1007.7mb 33f
2:36pm 14 20 mph 1007.7mb 33f
2:30pm 13 16 mph 1007.5mb 34f
2:24pm 13 16 mph 1008.2mb 34f
2:18pm 11 15 mph 1008.5mb 33f
2:12pm 11 15 mph 1008.7mb 33f
2:06pm 13 17 mph 1008.4mb 34f
2:00pm 11 15 mph 1009mb 33f
1:54pm 13 15 mph 1009mb 33f
1:48pm 13 16 mph 1008.7mb 33f
1:42pm 14 16 mph 1008.5mb 34f
1:36pm 11 14 mph 1008.9mb 33f
1:30pm 11 14 mph 1009.1mb 33f
1:24pm 9 11 mph 1009.4mb 33f
1:18pm 10 13 mph 1009.9mb 33f
1:12pm 9 11 mph 1009.8mb 33f
1:06pm 10 14 mph 1010.1mb 33f
1:00pm 10 13 mph 1010.3mb 33f
12:54pm 10 13 mph 1010.5mb 33f
12:48pm 8 11 mph 1010.9mb 33f
12:42pm 9 14 mph 1010.8mb 33f
12:36pm 9 13 mph 1011mb 33f
12:30pm 9 11 mph 1010.9mb 34f
12:24pm 8 9 mph 1011.1mb 34f
12:18pm 6 8 mph 1011.6mb 34f
12:12pm 8 10 mph 1011.5mb 34f
12:06pm 9 11 mph 1011.5mb 34f
12:00pm 8 10 mph 1011.7mb 34f
11:54am 8 11 mph 1011.6mb 34f
11:48am 9 10 mph 1011.3mb 34f
11:42am 8 10 mph 1011.3mb 34f
11:36am 7 9 mph 1011.4mb 34f
11:30am 9 11 mph 1011.6mb 34f
11:24am 9 11 mph 1011.8mb 34f
11:18am 8 10 mph 1012mb 35f
11:12am 10 13 mph 1011.9mb 34f
11:06am 10 13 mph 1012mb 35f
11:00am 11 14 mph 1012.3mb 35f
10:54am 11 14 mph 1012.4mb 35f
10:48am 13 15 mph 1012.2mb 35f
10:42am 13 15 mph 1012.2mb 36f
10:36am 9 11 mph 1012.5mb 36f
10:30am 10 13 mph 1012mb 37f
10:24am 9 11 mph 1012.3mb 36f
10:18am 10 14 mph 1012.5mb 36f
10:12am 9 11 mph 1012.6mb 36f
10:06am 10 14 mph 1012.7mb 36f
10:00am 10 13 mph 1012.6mb 36f
9:54am 10 14 mph 1012.8mb 36f
9:48am 10 13 mph 1012.9mb 35f
9:42am 13 16 mph 1012.9mb 35f
9:36am 9 13 mph 1013.1mb 35f
9:30am 9 11 mph 1013.1mb 35f
9:24am 11 15 mph 1013mb 35f
9:18am 9 13 mph 1013.1mb 35f
9:12am 10 14 mph 1013.2mb 36f
9:06am 11 14 mph 1013.6mb 36f
9:00am 8 10 mph 1013.6mb 36f
8:54am 10 13 mph 1013.9mb 36f
8:48am 9 11 mph 1013.7mb 37f
8:42am 10 13 mph 1013.7mb 37f
8:36am 8 9 mph 1014mb 37f
8:30am 8 10 mph 1014.3mb 37f
8:24am 8 10 mph 1014.3mb 37f
8:18am 7 9 mph 1014.3mb 37f
8:12am 7 9 mph 1014.2mb 37f
8:06am 6 7 mph 1014.1mb 37f
8:00am 7 8 mph 1014mb 37f
7:54am 6 7 mph 1014.2mb 37f
7:48am 5 6 mph 1014.1mb 38f
7:42am 6 6 mph 1014.1mb 38f
7:36am 5 6 mph 1014mb 38f
7:30am 6 6 mph 1013.9mb 38f
7:24am 5 6 mph 1014mb 38f
7:18am 5 6 mph 1013.8mb 38f
7:12am 5 6 mph 1013.9mb 38f
7:06am 6 7 mph 1013.7mb 38f
7:00am 6 7 mph 1013.6mb 38f
6:54am 5 6 mph 1013.5mb 38f
6:48am 3 5 mph 1013.5mb 38f
6:42am 2 3 mph 1013.7mb 38f
6:36am 3 3 mph 1013.6mb 38f
6:30am 2 3 mph 1013.7mb 38f
6:24am 3 5 mph 1013.6mb 38f
6:18am 2 3 mph 1013.7mb 38f
6:12am 3 5 mph 1013.6mb 38f
6:06am 3 5 mph 1013.8mb 38f
6:00am 3 5 mph 1014mb 38f
5:54am 3 5 mph 1013.8mb 38f
5:48am 2 3 mph 1013.6mb 38f
5:42am 2 3 mph 1014.1mb 38f
5:36am  -  1 mph 1014.3mb 38f
5:30am 1 2 mph 1014.3mb 38f
5:24am 3 5 mph 1013.9mb 38f
5:18am 2 3 mph 1013.9mb 38f
5:12am 2 3 mph 1013.8mb 38f
5:06am 5 5 mph 1013.6mb 38f
5:00am 3 5 mph 1013.8mb 38f
4:54am 3 5 mph 1013.6mb 38f
4:48am 3 5 mph 1013.8mb 38f
4:42am 3 5 mph 1013.6mb 38f
4:36am 3 6 mph 1013.6mb 38f
4:30am 3 6 mph 1013.5mb 38f
4:24am 6 6 mph 1013.5mb 38f
4:18am 5 6 mph 1013.7mb 38f
4:12am 6 7 mph 1013.6mb 38f
4:06am 3 6 mph 1013.5mb 38f
4:00am 6 7 mph 1013.4mb 38f
3:54am 6 7 mph 1013.5mb 38f
3:48am 7 9 mph 1013.5mb 38f
3:42am 7 8 mph 1013.6mb 38f
3:36am 6 6 mph 1013.7mb 38f
3:30am 5 6 mph 1013.5mb 38f
3:24am 5 6 mph 1013.5mb 38f
3:18am 5 5 mph 1013.5mb 38f
3:12am 3 3 mph 1013.8mb 38f
3:06am 2 3 mph 1014.1mb 38f
3:00am 2 3 mph 1013.9mb 38f
2:54am 5 5 mph 1013.7mb 38f
2:48am 2 3 mph 1013.9mb 38f
2:42am 2 3 mph 1014mb 38f
2:36am 3 5 mph 1014mb 38f
2:30am 3 5 mph 1014.1mb 38f
2:24am 3 5 mph 1014.2mb 38f
2:18am 2 2 mph 1014.2mb 38f
2:12am 2 3 mph 1014.1mb 38f
2:06am 2 3 mph 1014.2mb 38f
2:00am 1 2 mph 1014.5mb 38f
1:54am 1 2 mph 1014.4mb 38f
1:48am  -  1 mph - -
1:42am 1 2 mph - -
1:36am 1 2 mph - -
1:30am 1 3 mph 1013.8mb 38f
1:24am 3 5 mph 1013.6mb 38f
1:18am 1 2 mph 1013.4mb 38f
1:12am 2 3 mph 1013.2mb 38f
1:06am 5 6 mph 1013.1mb 38f
1:00am 5 5 mph 1012.7mb 38f
12:54am 3 5 mph 1012.9mb 38f
12:48am 2 5 mph 1013mb 38f
12:42am 5 5 mph 1013mb 38f
12:36am 2 5 mph 1013mb 38f
12:30am  -  mph 1013.1mb 38f
12:24am  -  mph 1013.2mb 38f
12:18am  -  mph 1013.3mb 38f
12:12am  -  mph 1013.4mb 38f
12:06am  -  mph 1013.6mb 38f
12:00am  -  mph 1013.4mb 38f
Fri 12/08 11:54pm  -  mph 1013.8mb 38f
11:48pm  -  mph 1013.9mb 38f
11:42pm  -  mph 1014.1mb 39f
11:36pm  -  mph 1014.1mb 39f
11:30pm 5 6 mph 1014.2mb 39f
11:18pm  -  mph 1014.2mb 39f
11:12pm  -  mph 1014.2mb 39f
11:06pm  -  mph 1014.3mb 39f
11:00pm 3 5 mph 1014.4mb 39f
10:54pm 3 5 mph 1014.5mb 39f
10:48pm  -  mph 1014.5mb 39f
10:42pm  -  mph 1014.3mb 39f
10:36pm  -  mph 1014.3mb 39f
10:30pm 3 5 mph 1014.1mb 39f
10:24pm 3 3 mph 1013.9mb 39f
10:18pm 3 5 mph 1013.8mb 39f
10:12pm 3 5 mph 1013.8mb 39f
10:06pm 3 5 mph 1013.8mb 39f
10:00pm  -  mph 1014mb 39f
9:54pm  -  mph 1013.9mb 39f
9:48pm  -  mph 1014.2mb 39f
9:42pm  -  mph 1014.1mb 39f
9:36pm  -  mph 1014.3mb 39f
9:30pm 2 3 mph 1014.4mb 39f
9:24pm 2 3 mph 1014.3mb 39f
9:18pm 3 6 mph 1014.4mb 39f
9:12pm 3 3 mph 1014.6mb 39f
9:06pm 5 6 mph 1014.8mb 39f
9:00pm  -  mph 1014.7mb 39f
8:54pm  -  mph 1014.6mb 39f
8:48pm 6 7 mph 1014.3mb 39f
8:42pm 3 5 mph 1014.3mb 39f
8:36pm 3 5 mph 1014.1mb 39f
8:30pm 3 5 mph 1014.2mb 39f
8:24pm 3 5 mph 1014.4mb 39f
8:18pm  -  mph 1014.5mb 39f
8:12pm  -  mph 1014.8mb 39f
8:06pm  -  mph 1014.8mb 39f
8:00pm 6 7 mph 1014.9mb 39f
7:54pm 7 8 mph 1015mb 39f
7:48pm 9 10 mph 1014.8mb 40f
7:42pm 8 9 mph 1014.5mb 40f
7:36pm 3 6 mph 1014.4mb 39f
7:30pm  -  mph 1014.6mb 39f
7:24pm  -  mph 1014.5mb 39f
7:18pm  -  mph 1014.6mb 40f
7:12pm  -  mph 1014.9mb 40f
7:06pm  -  mph 1015.1mb 40f
7:00pm 6 8 mph 1015.2mb 40f
6:54pm 7 9 mph 1015.4mb 40f
6:48pm 8 10 mph 1015.8mb 40f
6:42pm 7 9 mph 1015.7mb 40f
6:36pm 7 8 mph 1015.6mb 40f
6:30pm 8 10 mph 1015.8mb 40f
6:24pm 8 11 mph 1015.9mb 40f
6:18pm 9 11 mph 1015.9mb 40f
6:12pm 8 10 mph 1015.8mb 40f
6:06pm 8 10 mph 1015.6mb 40f
6:00pm 9 10 mph 1015.6mb 40f
5:54pm 8 10 mph 1015.7mb 40f
5:48pm 8 11 mph 1015.6mb 40f
5:42pm 9 9 mph 1015.4mb 40f
5:36pm 8 9 mph 1015.4mb 40f
5:30pm 7 8 mph 1015.3mb 40f
5:24pm 7 9 mph 1015.4mb 40f
5:18pm 7 9 mph 1015.6mb 40f
5:12pm 8 9 mph 1015.6mb 40f
5:06pm 8 9 mph 1015.7mb 40f
5:00pm  -  mph 1015.8mb 40f
4:54pm  -  mph 1015.7mb 40f
4:48pm  -  mph 1015.6mb 40f
4:42pm  -  mph 1015.5mb 40f
4:36pm  -  mph 1015.5mb 40f
4:30pm  -  mph 1015.6mb 40f
4:24pm  -  mph 1015.6mb 40f
4:18pm  -  mph 1015.7mb 40f
4:12pm  -  mph 1015.7mb 40f
4:06pm  -  mph 1015.7mb 40f
4:00pm  -  mph 1015.6mb 40f
3:54pm  -  mph 1015.6mb 40f
3:30pm 9 11 mph 1015.7mb 40f
3:24pm 8 10 mph 1015.6mb 40f
3:18pm  -  mph 1015.7mb 40f
3:12pm  -  mph 1015.6mb 40f
3:06pm  -  mph 1015.7mb 40f
3:00pm 9 13 mph 1015.8mb 39f
2:54pm 8 10 mph 1015.8mb 39f
2:48pm 10 13 mph 1015.8mb 39f
2:42pm 9 14 mph 1015.9mb 39f
2:36pm 9 11 mph 1015.9mb 39f
2:30pm 10 13 mph 1016mb 39f
2:24pm 7 10 mph 1015.9mb 39f
2:18pm  -  mph 1015.8mb 39f